[[{"header":{"parameterUnit":"m.s-1","parameterCategory":1,"la1":30.2991,"la2":30.254,"lo1":-89.0895,"lo2":-89.0444,"dy":0.0017,"dx":0.0017,"nx":28,"ny":28,"refTime":"2024-07-21T09:00:00:Z","depth":0,"parameterNumber":2,"parameterNumberName":"U-component_of_WINDS"},"data":[0,0,0,0,0,0,0,0,0,0,0,0,0,0,0,0,0,0,0,0,0,0,0,0,0,0,0,0,0,0,0,0,0,0,0,0,0,0,0,0,0,0,0,0,0,0,0,0,0,0,0,0,0,0,0,0,0,0,1.3181,1.3181,0,1.3243,1.3244,1.3245,1.3243,1.3242,1.3241,1.324,1.3304,1.3306,1.3309,0,0,0,0,0,0,0,0,0,0,0,0,0,1.3056,1.3059,1.3181,1.3181,1.3182,1.3243,1.3244,1.3245,1.3243,1.3242,1.3241,1.324,1.3303,1.3306,1.3309,0,0,0,0,0,0,0,0,0,0,0,0,0,1.3114,1.3059,1.318,1.3188,1.319,1.3243,1.3244,1.3245,1.3243,1.3242,1.324,1.3239,1.3302,1.3306,1.3309,1.3358,0,0,1.3321,1.3322,0,0,0,0,0,0,0,0,1.3111,1.3118,1.3187,1.3188,1.319,1.3234,1.3224,1.3283,1.3243,1.3223,1.324,1.3239,1.3281,1.3287,1.3301,1.3361,1.3364,1.3321,1.3323,1.3325,1.3326,0,0,0,0,0,0,0,1.3107,1.3116,1.3205,1.3187,1.3189,1.3188,1.3195,1.3235,1.3259,1.3224,1.3224,1.3232,1.3282,1.3298,1.3303,1.3365,1.3321,1.3324,1.3327,1.3328,1.3464,1.3466,0,0,0,0,0,0,1.3101,1.3112,1.3203,1.3207,1.3146,1.3191,1.3199,1.3221,1.3258,1.3263,1.3233,1.3232,1.3292,1.3299,1.3305,1.3362,1.3325,1.3329,1.3331,1.3463,1.3465,1.3466,0,0,0,0,0,0,1.3098,1.3109,1.3201,1.316,1.3171,1.3195,1.322,1.3223,1.3239,1.3265,1.3269,1.3245,1.3291,1.33,1.3344,1.3365,1.333,1.3334,1.3461,1.3464,1.3465,1.3479,0,0,0,0,0,0,1.3095,1.3108,1.3128,1.316,1.3174,1.324,1.3221,1.3225,1.3245,1.3244,1.3277,1.3281,1.3291,1.3339,1.3348,1.3369,1.3337,1.346,1.3462,1.3465,1.3477,1.3481,1.3485,0,0,0,0,0,1.309,1.313,1.3129,1.314,1.3199,1.3241,1.3249,1.3259,1.3247,1.3266,1.3282,1.328,1.3361,1.3343,1.3354,1.3376,1.3458,1.3462,1.3465,1.3475,1.348,1.3485,0,0,0,0,0,0,1.3101,1.3135,1.3134,1.3186,1.321,1.3241,1.3266,1.3265,1.3294,1.3292,1.3304,1.3311,1.3355,1.337,1.335,1.3424,1.3408,1.3413,1.3412,1.3418,1.3422,1.3417,1.334,0,0,0,0,0,1.3109,1.3141,1.3169,1.3211,1.3224,1.3242,1.3261,1.3267,1.3293,1.3304,1.3324,1.3349,1.3379,1.34,1.343,1.3479,1.3485,1.35,1.3504,1.3507,1.3511,1.3535,1.3541,1.3476,1.3476,1.3476,0,0,1.3126,1.3149,1.3169,1.3214,1.3234,1.3265,1.3251,1.3286,1.3309,1.3309,1.3352,1.3367,1.3395,1.3441,1.3463,1.3456,1.353,1.3511,1.3513,1.3516,1.3539,1.3545,1.355,1.3478,1.3478,1.3478,0,0,1.3174,1.3195,1.3231,1.3251,1.3281,1.3292,1.3301,1.3331,1.334,1.3383,1.3383,1.341,1.3464,1.3483,1.35,1.3551,1.3549,1.356,1.3581,1.3605,1.361,1.3614,1.363,1.3636,1.3564,1.3565,1.3565,0,1.3191,1.324,1.325,1.3284,1.3303,1.3303,1.3339,1.3357,1.3395,1.3408,1.3399,1.3464,1.3484,1.3533,1.3545,1.3559,1.3568,1.3556,1.3608,1.3613,1.3617,1.3632,1.3639,1.3566,1.3565,1.3565,1.3565,0,1.3258,1.3291,1.3317,1.3353,1.3374,1.3409,1.3423,1.3444,1.3447,1.3459,1.3501,1.3524,1.3557,1.3569,1.3573,1.3618,1.3612,1.3606,1.359,1.3624,1.3639,1.3645,1.3567,1.3567,1.3566,1.3566,0,0,1.3315,1.3354,1.3363,1.3378,1.3409,1.3435,1.3468,1.35,1.3516,1.3542,1.3569,1.3613,1.3606,1.3625,1.3631,1.3652,1.3687,1.3642,1.3643,1.3648,1.3734,1.3738,1.3744,1.3686,1.3687,1.3688,1.3731,0,1.3364,1.3424,1.3433,1.3485,1.3514,1.3513,1.3542,1.3563,1.3575,1.36,1.3613,1.3643,1.3633,1.3644,1.3664,1.3678,1.3704,1.3675,1.3709,1.3711,1.3701,1.3752,1.3757,1.3797,1.3737,1.3738,1.3739,0,1.343,1.3456,1.351,1.3535,1.3547,1.3573,1.3601,1.3626,1.365,1.3656,1.3676,1.3678,1.3711,1.3694,1.3738,1.3718,1.3733,1.3741,1.3743,1.3746,1.3726,1.3755,1.381,1.3815,1.3748,1.3747,1.3747,0,1.3463,1.3511,1.3549,1.3562,1.3593,1.361,1.3623,1.3646,1.3663,1.3688,1.3698,1.3727,1.3742,1.3763,1.3772,1.3759,1.3815,1.3799,1.3819,1.3819,1.3831,1.383,1.3887,1.3842,1.3842,1.3842,1.3842,0,1.3516,1.3548,1.3564,1.3588,1.3623,1.3632,1.3667,1.368,1.3699,1.3723,1.3725,1.3748,1.376,1.3784,1.3791,1.3825,1.3832,1.3837,1.3839,1.3836,1.3835,1.3845,1.3842,1.3844,1.3844,1.3843,1.3843,0,1.3558,1.3571,1.3612,1.3636,1.3643,1.3668,1.3688,1.371,1.372,1.3751,1.3758,1.3775,1.3803,1.3814,1.3849,1.3854,1.3892,1.3892,1.3884,1.3884,1.3903,1.39,1.3968,1.3976,1.3927,1.3928,1.3928,0,1.3591,1.3616,1.3642,1.3658,1.3672,1.3698,1.3715,1.3724,1.3742,1.3769,1.3786,1.3814,1.3837,1.3882,1.3896,1.3922,1.3922,1.3943,1.3926,1.3921,1.3919,1.3917,1.3919,1.3946,1.3947,1.3947,1.3948,0,1.3646,1.365,1.3675,1.3701,1.3721,1.3742,1.3763,1.3776,1.3787,1.3807,1.3835,1.3853,1.3887,1.3914,1.394,1.3952,1.3951,1.3953,1.3959,1.3956,1.3949,1.3951,1.3891,1.3951,1.3951,1.3951,1.3951,1.395,1.3683,1.3704,1.3725,1.3751,1.3767,1.3786,1.3806,1.3818,1.3842,1.387,1.3874,1.3903,1.3923,1.3958,1.3972,1.3994,1.3988,1.3997,1.3999,1.4001,1.4001,1.3947,1.3999,1.3999,1.3999,1.3999,1.3999,0,1.3736,1.3749,1.3773,1.3801,1.3821,1.3818,1.384,1.3857,1.3883,1.3901,1.3923,1.3954,1.3979,1.3995,1.402,1.4034,1.4034,1.404,1.4039,1.4041,1.4006,1.3997,1.404,1.404,1.404,1.404,1.404,1.404,1.3766,1.38,1.3806,1.3847,1.386,1.3888,1.3901,1.3917,1.3931,1.3965,1.3986,1.3996,1.4012,1.4038,1.406,1.4064,1.4073,1.4079,1.4082,1.4048,1.4044,1.404,1.4032,1.4081,1.4081,1.4115,1.4115,1.4116]},{"header":{"parameterUnit":"m.s-1","parameterCategory":1,"la1":30.2991,"la2":30.254,"lo1":-89.0895,"lo2":-89.0444,"dy":0.0017,"dx":0.0017,"nx":28,"ny":28,"refTime":"2024-07-21T09:00:00:Z","depth":0,"parameterNumber":3,"parameterNumberName":"V-component_of_WINDS"},"data":[0,0,0,0,0,0,0,0,0,0,0,0,0,0,0,0,0,0,0,0,0,0,0,0,0,0,0,0,0,0,0,0,0,0,0,0,0,0,0,0,0,0,0,0,0,0,0,0,0,0,0,0,0,0,0,0,0,0,4.322,4.3221,0,4.3286,4.3287,4.3288,4.3243,4.3241,4.3239,4.3237,4.33,4.3303,4.3307,0,0,0,0,0,0,0,0,0,0,0,0,0,4.3048,4.3051,4.322,4.3221,4.3222,4.3286,4.3287,4.3288,4.3243,4.3241,4.3238,4.3236,4.3298,4.3303,4.3307,0,0,0,0,0,0,0,0,0,0,0,0,0,4.3119,4.3052,4.322,4.3207,4.3207,4.3286,4.3287,4.3288,4.3244,4.324,4.3237,4.3235,4.3297,4.3302,4.3307,4.3402,0,0,4.3324,4.3326,0,0,0,0,0,0,0,0,4.3115,4.3125,4.3208,4.3208,4.3208,4.3253,4.3249,4.3326,4.3244,4.3229,4.3237,4.3233,4.3286,4.3292,4.3311,4.3405,4.3407,4.3324,4.3328,4.333,4.3331,0,0,0,0,0,0,0,4.311,4.3122,4.3246,4.3209,4.3209,4.3196,4.3203,4.3264,4.3274,4.323,4.3227,4.3236,4.3285,4.3306,4.3312,4.3408,4.3324,4.3329,4.3332,4.3334,4.3579,4.3582,0,0,0,0,0,0,4.3107,4.3118,4.3244,4.3248,4.3153,4.3201,4.3209,4.3242,4.3273,4.3275,4.3239,4.3234,4.3299,4.3306,4.3314,4.3424,4.333,4.3335,4.3338,4.3575,4.3579,4.3583,0,0,0,0,0,0,4.3104,4.3119,4.3241,4.3182,4.3197,4.3208,4.3245,4.3245,4.3265,4.3279,4.328,4.3258,4.3296,4.3307,4.338,4.3426,4.3337,4.3342,4.3571,4.3577,4.3581,4.3647,0,0,0,0,0,0,4.3099,4.3118,4.3155,4.3184,4.32,4.3308,4.3248,4.3248,4.3275,4.3269,4.3298,4.33,4.3295,4.3372,4.3385,4.3432,4.3346,4.3567,4.3574,4.3579,4.3641,4.3653,4.3664,0,0,0,0,0,4.3093,4.3171,4.3158,4.3173,4.3248,4.3311,4.332,4.3314,4.3279,4.3316,4.3324,4.3299,4.3419,4.338,4.3394,4.3443,4.3564,4.3572,4.3579,4.3635,4.3651,4.3664,0,0,0,0,0,0,4.3146,4.3174,4.316,4.325,4.3278,4.3303,4.3349,4.3331,4.3369,4.3362,4.3351,4.3358,4.3434,4.3446,4.3402,4.3534,4.3486,4.3497,4.3524,4.3539,4.355,4.3545,4.3351,0,0,0,0,0,4.3169,4.3219,4.324,4.3317,4.3333,4.3339,4.3366,4.3359,4.3387,4.3398,4.3412,4.3439,4.3483,4.3512,4.3553,4.3642,4.3646,4.3683,4.3695,4.3705,4.3713,4.3759,4.3774,4.3607,4.3607,4.3607,0,0,4.3215,4.3237,4.3269,4.3329,4.335,4.34,4.3349,4.3405,4.3441,4.3406,4.3476,4.3487,4.3516,4.3597,4.3634,4.361,4.376,4.3714,4.3722,4.3725,4.3768,4.3784,4.3798,4.3612,4.3611,4.361,0,0,4.3325,4.3348,4.3413,4.3436,4.3469,4.3472,4.3488,4.3515,4.3521,4.3592,4.3566,4.3608,4.3684,4.3705,4.3725,4.3842,4.3819,4.3855,4.3917,4.3961,4.3974,4.3986,4.4025,4.4039,4.3864,4.3864,4.3865,0,4.3378,4.3455,4.3449,4.3506,4.3532,4.3504,4.3568,4.359,4.3634,4.3651,4.3625,4.3718,4.3736,4.382,4.3848,4.3867,4.3882,4.3851,4.3973,4.3985,4.3996,4.4032,4.4047,4.3868,4.3868,4.3868,4.3867,0,4.3517,4.357,4.3619,4.3663,4.3694,4.3755,4.3756,4.3788,4.3778,4.3783,4.3853,4.3873,4.3917,4.3937,4.3927,4.4019,4.4003,4.3975,4.3926,4.4016,4.405,4.4064,4.3874,4.3873,4.3872,4.3871,0,0,4.3662,4.3702,4.372,4.3738,4.3772,4.3812,4.387,4.3914,4.394,4.3972,4.4018,4.4083,4.4057,4.408,4.4072,4.4112,4.4199,4.4079,4.4079,4.4098,4.4298,4.4318,4.4334,4.4185,4.4188,4.419,4.4295,0,4.3772,4.3875,4.3871,4.3966,4.4014,4.3987,4.4037,4.4062,4.4068,4.4108,4.4114,4.4159,4.4122,4.4136,4.4174,4.4181,4.4239,4.4173,4.4225,4.4227,4.4217,4.4353,4.4374,4.4472,4.4309,4.4311,4.4313,0,4.3914,4.395,4.4051,4.4076,4.4096,4.4141,4.418,4.4219,4.4245,4.4247,4.4273,4.4258,4.4314,4.4265,4.434,4.4296,4.4317,4.4323,4.4327,4.433,4.4274,4.4357,4.4504,4.4518,4.4334,4.4333,4.4331,0,4.4006,4.4081,4.415,4.4167,4.4199,4.4231,4.4245,4.4269,4.4295,4.4328,4.4344,4.4383,4.4404,4.4433,4.4429,4.4394,4.4505,4.4456,4.4505,4.4505,4.4528,4.4526,4.4678,4.4546,4.4545,4.4545,4.4545,0,4.4128,4.419,4.4192,4.4234,4.4302,4.4295,4.4362,4.4372,4.4393,4.4435,4.4415,4.4454,4.4447,4.4485,4.4482,4.4543,4.4554,4.4554,4.4552,4.4555,4.4555,4.4567,4.4559,4.4549,4.4548,4.4547,4.4547,0,4.4243,4.4247,4.432,4.4344,4.4351,4.44,4.4419,4.4457,4.4462,4.4515,4.4527,4.4533,4.4577,4.4576,4.4626,4.4624,4.4698,4.469,4.469,4.4687,4.4736,4.473,4.4899,4.492,4.4776,4.4778,4.4779,0,4.4319,4.4366,4.4395,4.4422,4.4439,4.4483,4.451,4.4504,4.4532,4.4565,4.4599,4.4642,4.4675,4.4747,4.4754,4.4792,4.4782,4.4839,4.4788,4.4788,4.478,4.4777,4.478,4.4848,4.485,4.4851,4.4852,0,4.4454,4.4453,4.4493,4.4533,4.4565,4.4596,4.4625,4.4648,4.4645,4.4677,4.4723,4.4749,4.48,4.4841,4.4877,4.4889,4.487,4.4869,4.4882,4.4884,4.4881,4.4881,4.4715,4.4864,4.4863,4.4862,4.4862,4.4861,4.455,4.4589,4.4616,4.466,4.4681,4.4707,4.4744,4.4753,4.4792,4.4834,4.4828,4.4878,4.4901,4.4947,4.4963,4.5,4.498,4.4999,4.5004,4.5008,4.5013,4.4877,4.5007,4.5007,4.5006,4.5006,4.5006,0,4.4681,4.4696,4.4737,4.4778,4.4812,4.4793,4.4822,4.4851,4.4896,4.492,4.4954,4.5005,4.5045,4.5056,4.5093,4.5121,4.5113,4.5131,4.5128,4.513,4.503,4.5014,4.5137,4.5137,4.5137,4.5137,4.5137,4.5137,4.4753,4.4818,4.4821,4.4895,4.4909,4.4959,4.4978,4.5001,4.502,4.5078,4.5112,4.5119,4.5137,4.5176,4.521,4.5212,4.5226,4.5247,4.5245,4.5151,4.5138,4.5125,4.511,4.5251,4.5251,4.5342,4.5343,4.5344]}]]